Tracking 18987 objects as of 25-Feb-2018
HD Live streaming from Space Station
objects crossing your sky now

FENGYUN 1C DEB

Track FENGYUN 1C DEB now!
10-day predictions


NORAD ID: 30728
Int'l Code: 1999-025ASN
Perigee: 751.4 km
Apogee: 896.4 km
Inclination: 98.8 °
Period: 101.2 minutes
Semi major axis: 7194 km
RCS: 0.0095 m2 (small)
Launch date: May 10, 1999
Source: People's Republic of China (PRC)
Launch site: Taiyaun Space Center, China (TSC)

Note: This is SATELLITE DEBRIS
aabbcc
Your satellite tracking list
Your tracking list is empty




NASA's NSSDC Master Catalog

Two Line Element Set (TLE):
1 30728U 99025ASN 18055.59184672 +.00000014 +00000-0 +24530-4 0  9999
2 30728 098.7606 083.7948 0100756 067.1998 056.1587 14.22547968571885
Source of the keplerian elements: AFSPC